Location: Mercogliano
(40.9167°N, 14.7333°E)
Time: 07:02:23
(UTC+00:00)

CZ-2C R/B - Pass Details

Date: 23 January 2021
Orbit: 785 x 870 km, 98.2° (Epoch: 08 March)

Event Time Altitude Azimuth Distance (km) Brightness Sun altitude
Rises 04:26:41 0° 135° (SE) 3,279 6.6 -21.1°
Reaches altitude 10° 04:29:14 10° 124° (SE) 2,363 5.9 -20.6°
Maximum altitude 04:33:39 29° 66° (ENE) 1,453 4.5 -19.8°
Drops below altitude 10° 04:38:10 10° 9° (N) 2,417 5.1 -19.0°
Sets 04:40:48 0° 358° (N) 3,368 5.7 -18.5°
